KINEIS-2B

Last updated on Wed Mar 11 2026 00:02:47 GMT+0000 (Coordinated Universal Time)

1 62934U 25028G 26069.11582398 .00001657 00000+0 26492-3 0 9995 2 62934 97.9792 123.7393 0004937 107.7190 252.4557 14.73116527 58072
UTC large
Height (km)
Speed (km/s)
/
Latitude / Longitude
Inclination (degrees)
Orbital Period (minutes)
Azimuth
Elevation
Range (km)
Doppler Factor

Next 0 passes for location: London (51.5072 / 0.1276)

Sorry there are no passes over London.